Weather History for Devils Lake, ND

Change the Weather History Date:

Saturday, April 12, 2014

  Actual Average Record
Temperature  
Mean Temperature 38 °F -  
Max Temperature 46 °F 51 °F 77 °F (1968)
Min Temperature 30 °F 30 °F 3 °F (1992)
Degree Days  
Heating Degree Days 27    
Moisture  
Dew Point 30 °F    
Average Humidity 75    
Maximum Humidity 87    
Minimum Humidity 70    
Precipitation  
Precipitation 0.10 in - - ()
Sea Level Pressure  
Sea Level Pressure 29.80 in    
Wind  
Wind Speed 14 mph (ENE)    
Max Wind Speed 22 mph    
Max Gust Speed 25 mph    
Visibility 9 miles    
Events      
Averages and records for this station are not official NWS values.
T = Trace of Precipitation, MM = Missing Value Source: NWS Daily Summary

Daily Weather History Graph

Daily Weather History Graph

Search for Another Location

Airport:

Trip Planner

Search our weather history database for the weather conditions in past years. The results will help you decide how hot, cold, wet, or windy it might be!

Date:

Astronomy

Apr. 12, 2014 Rise Set
Actual Time 6:51 AM CDT 8:21 PM CDT
Civil Twilight 6:19 AM CDT 8:54 PM CDT
Nautical Twilight 5:40 AM CDT 9:34 PM CDT
Astronomical Twilight 4:57 AM CDT 10:16 PM CDT
Moon 5:52 PM CDT (4/12) 5:31 AM CDT (4/12)
Length of Visible Light 14h 35m
Length of Day
13h 30m
Waxing Gibbous, 93% of the Moon is Illuminated
Apr 12
Waxing Gibbous
Apr 15
Full
Apr 22
Last Quarter
Apr 29
New
May 6
First Quarter

Hourly Weather History & Observations

Time (CDT) Temp. Windchill Dew Point Humidity Pressure Visibility Wind Dir Wind Speed Gust Speed Precip Events Conditions
12:15 AM 33.8 °F 24.3 °F 26.6 °F 75% 29.90 in 7.0 mi East 13.8 mph - 0.01 in   Overcast
12:35 AM 33.8 °F 23.5 °F 26.6 °F 75% 29.89 in 10.0 mi East 16.1 mph - 0.03 in   Overcast
12:55 AM 33.8 °F 23.9 °F 26.6 °F 75% 29.89 in 10.0 mi East 15.0 mph 23.0 mph 0.04 in   Overcast
1:15 AM 33.8 °F 23.5 °F 26.6 °F 75% 29.89 in 10.0 mi East 16.1 mph - 0.01 in   Overcast
1:35 AM 33.8 °F 23.2 °F 26.6 °F 75% 29.87 in 10.0 mi East 17.3 mph 23.0 mph 0.01 in   Overcast
1:55 AM 33.8 °F 22.5 °F 26.6 °F 75% 29.86 in 10.0 mi East 19.6 mph 23.0 mph 0.02 in   Overcast
2:15 AM 33.8 °F 23.5 °F 26.6 °F 75% 29.85 in 10.0 mi East 16.1 mph 25.3 mph N/A   Overcast
2:35 AM 33.8 °F 23.5 °F 26.6 °F 75% 29.85 in 10.0 mi East 16.1 mph - 0.01 in   Overcast
2:55 AM 33.8 °F 23.9 °F 26.6 °F 75% 29.84 in 10.0 mi East 15.0 mph 20.7 mph 0.01 in   Overcast
3:15 AM 33.8 °F 23.9 °F 28.4 °F 81% 29.82 in 10.0 mi East 15.0 mph 18.4 mph N/A   Overcast
3:35 AM 33.8 °F 24.8 °F 26.6 °F 75% 29.81 in 10.0 mi East 12.7 mph - N/A   Overcast
3:55 AM 33.8 °F 24.3 °F 26.6 °F 75% 29.82 in 10.0 mi East 13.8 mph - N/A   Overcast
4:15 AM 33.8 °F 24.3 °F 26.6 °F 75% 29.82 in 10.0 mi East 13.8 mph - N/A   Overcast
4:35 AM 33.8 °F 24.8 °F 26.6 °F 75% 29.81 in 10.0 mi East 12.7 mph - N/A   Overcast
4:55 AM 33.8 °F 24.8 °F 26.6 °F 75% 29.81 in 10.0 mi East 12.7 mph - N/A   Overcast
5:15 AM 33.8 °F 23.9 °F 24.8 °F 70% 29.80 in 10.0 mi East 15.0 mph - N/A   Overcast
5:35 AM 33.8 °F 22.8 °F 24.8 °F 70% 29.78 in 10.0 mi East 18.4 mph 23.0 mph N/A   Mostly Cloudy
5:55 AM 33.8 °F 23.5 °F 24.8 °F 70% 29.77 in 10.0 mi ESE 16.1 mph 20.7 mph N/A   Overcast
6:15 AM 33.8 °F 25.3 °F 24.8 °F 70% 29.77 in 10.0 mi East 11.5 mph - N/A   Overcast
6:35 AM 33.8 °F 23.9 °F 24.8 °F 70% 29.76 in 10.0 mi ESE 15.0 mph - N/A   Overcast
6:55 AM 32.0 °F 24.2 °F 24.8 °F 75% 29.77 in 10.0 mi ESE 9.2 mph - N/A   Overcast
7:15 AM 33.8 °F 25.3 °F 26.6 °F 75% 29.77 in 10.0 mi ESE 11.5 mph - N/A   Overcast
7:35 AM 33.8 °F 24.3 °F 26.6 °F 75% 29.74 in 10.0 mi East 13.8 mph - N/A   Overcast
7:55 AM 33.8 °F 25.3 °F 26.6 °F 75% 29.74 in 10.0 mi ESE 11.5 mph - N/A   Overcast
8:15 AM 33.8 °F 25.3 °F 28.4 °F 81% 29.74 in 10.0 mi ESE 11.5 mph - N/A   Overcast
8:35 AM 35.6 °F 27.1 °F 28.4 °F 75% 29.77 in 10.0 mi SSE 12.7 mph 18.4 mph N/A   Overcast
8:55 AM 33.8 °F 25.8 °F 28.4 °F 81% 29.76 in 6.0 mi SE 10.4 mph - N/A   Overcast
9:15 AM 33.8 °F 23.5 °F 28.4 °F 81% 29.75 in 1.0 mi ESE 16.1 mph - 0.01 in   Overcast
9:35 AM 35.6 °F 26.2 °F 30.2 °F 81% 29.73 in 0.5 mi ESE 15.0 mph - 0.01 in   Overcast
9:55 AM 35.6 °F 28.6 °F 30.2 °F 81% 29.74 in 1.2 mi SE 9.2 mph - 0.01 in   Overcast
10:15 AM 35.6 °F 29.2 °F 30.2 °F 81% 29.77 in 0.5 mi South 8.1 mph - N/A   Overcast
10:35 AM 35.6 °F 31.7 °F 30.2 °F 81% 29.77 in 0.5 mi WSW 4.6 mph - N/A   Overcast
10:55 AM 35.6 °F 29.9 °F 30.2 °F 81% 29.77 in 2.0 mi SSW 6.9 mph - N/A   Overcast
11:15 AM 37.4 °F 30.8 °F 32.0 °F 81% 29.73 in 4.0 mi SE 9.2 mph - 0.02 in   Overcast
11:35 AM 39.2 °F 33.0 °F 35.6 °F 87% 29.73 in 5.0 mi SE 9.2 mph - 0.02 in   Mostly Cloudy
11:55 AM 41.0 °F 35.8 °F 37.4 °F 87% 29.73 in 10.0 mi South 8.1 mph - 0.02 in   Overcast
12:15 PM 42.8 °F 38.0 °F 37.4 °F 81% 29.73 in 10.0 mi SSE 8.1 mph - N/A   Overcast
12:35 PM 44.6 °F 40.2 °F 37.4 °F 76% 29.73 in 10.0 mi SSE 8.1 mph - N/A   Overcast
12:55 PM 44.6 °F 39.7 °F 37.4 °F 76% 29.72 in 10.0 mi South 9.2 mph - N/A   Overcast
1:15 PM 46.4 °F 41.5 °F 37.4 °F 71% 29.72 in 10.0 mi South 10.4 mph - N/A   Overcast
1:35 PM 44.6 °F 39.7 °F 35.6 °F 71% 29.72 in 10.0 mi SSW 9.2 mph - N/A   Overcast
1:55 PM 44.6 °F 39.7 °F 35.6 °F 71% 29.72 in 10.0 mi SW 9.2 mph - N/A   Overcast
2:15 PM 44.6 °F 40.2 °F 37.4 °F 76% 29.73 in 10.0 mi WSW 8.1 mph - N/A   Overcast
2:35 PM 46.4 °F 41.5 °F 37.4 °F 71% 29.72 in 10.0 mi West 10.4 mph - N/A   Overcast
2:55 PM 46.4 °F 41.1 °F 37.4 °F 71% 29.73 in 10.0 mi WNW 11.5 mph - N/A   Overcast
3:15 PM 46.4 °F 40.7 °F 37.4 °F 71% 29.73 in 10.0 mi WNW 12.7 mph - N/A   Overcast
3:35 PM 44.6 °F 38.1 °F 37.4 °F 76% 29.74 in 10.0 mi NW 13.8 mph - N/A   Overcast
3:55 PM 42.8 °F 35.4 °F 35.6 °F 76% 29.75 in 10.0 mi NNW 15.0 mph - N/A   Overcast
4:15 PM 42.8 °F 34.5 °F 35.6 °F 76% 29.76 in 10.0 mi NW 18.4 mph - N/A   Overcast
4:35 PM 42.8 °F 34.0 °F 35.6 °F 76% 29.76 in 10.0 mi NNW 20.7 mph - N/A   Overcast
4:55 PM 42.8 °F 34.8 °F 35.6 °F 76% 29.77 in 10.0 mi NNW 17.3 mph - N/A   Overcast
5:15 PM 42.8 °F 35.1 °F 33.8 °F 70% 29.78 in 10.0 mi NNW 16.1 mph - N/A   Overcast
5:35 PM 42.8 °F 36.2 °F 33.8 °F 70% 29.79 in 10.0 mi NNW 12.7 mph - N/A   Overcast
5:55 PM 41.0 °F 34.3 °F 33.8 °F 76% 29.79 in 10.0 mi NNW 11.5 mph - N/A   Overcast
6:15 PM 42.8 °F 35.8 °F 33.8 °F 70% 29.81 in 10.0 mi NNW 13.8 mph - N/A   Overcast
6:35 PM 41.0 °F 32.8 °F 32.0 °F 70% 29.81 in 10.0 mi North 16.1 mph - N/A   Overcast
6:55 PM 41.0 °F 33.5 °F 32.0 °F 70% 29.82 in 10.0 mi North 13.8 mph - N/A   Overcast
7:15 PM 39.2 °F 31.2 °F 30.2 °F 70% 29.83 in 10.0 mi NNW 13.8 mph - N/A   Overcast
7:35 PM 39.2 °F 30.8 °F 30.2 °F 70% 29.84 in 10.0 mi North 15.0 mph - N/A   Overcast
7:55 PM 37.4 °F 28.2 °F 30.2 °F 75% 29.84 in 10.0 mi North 16.1 mph 19.6 mph N/A   Overcast
8:15 PM 37.4 °F 28.9 °F 30.2 °F 75% 29.85 in 10.0 mi North 13.8 mph - N/A   Overcast
8:35 PM 35.6 °F 26.2 °F 28.4 °F 75% 29.86 in 10.0 mi North 15.0 mph - N/A   Overcast
8:55 PM 35.6 °F 24.8 °F 28.4 °F 75% 29.88 in 10.0 mi North 19.6 mph 23.0 mph N/A   Overcast
9:15 PM 33.8 °F 23.2 °F 26.6 °F 75% 29.89 in 10.0 mi North 17.3 mph - N/A   Overcast
9:35 PM 33.8 °F 23.5 °F 24.8 °F 70% 29.91 in 10.0 mi North 16.1 mph 21.9 mph N/A   Overcast
9:55 PM 32.0 °F 21.2 °F 24.8 °F 75% 29.91 in 10.0 mi North 16.1 mph - N/A   Overcast
10:15 PM 30.2 °F 18.9 °F 24.8 °F 80% 29.92 in 10.0 mi North 16.1 mph - N/A   Overcast
10:35 PM 30.2 °F 18.5 °F 23.0 °F 75% 29.93 in 10.0 mi North 17.3 mph 21.9 mph N/A   Overcast
10:55 PM 30.2 °F 18.9 °F 23.0 °F 75% 29.93 in 10.0 mi NNW 16.1 mph - N/A   Overcast
11:15 PM 30.2 °F 17.8 °F 23.0 °F 75% 29.93 in 10.0 mi North 19.6 mph 23.0 mph N/A   Overcast
11:35 PM 30.2 °F 18.5 °F 24.8 °F 80% 29.94 in 10.0 mi NNW 17.3 mph - N/A   Overcast
11:55 PM 30.2 °F 17.1 °F 23.0 °F 75% 29.94 in 10.0 mi NNW 21.9 mph 25.3 mph N/A   Overcast